Location: Unspecified
(0.0000°N, 0.0000°E)
Time: 19:16:20
(UTC+00:00)

SO-50 - Pass Details

Date: 10 December 2017
Orbit: 611 x 677 km, 64.6° (Epoch: 18 January)

Event Time Altitude Azimuth Distance (km) Brightness Sun altitude
Exits shadow 03:22:54 20° 163° (SSE) 1,540 ? -34.1°
Drops below altitude 10° 03:24:24 10° 161° (SSE) 2,110 ? -33.7°
Sets 03:26:43 0° 160° (SSE) 3,025 ? -33.2°
